STARLINK-34511, 65214

Orbit data source: Space-Track

STARLINK-34511, 65214 is a payload satellite owned by SpaceX/Seattle (US) in LEO that was launched on Thu, 14 Aug 2025 UTC via an FALCON 9 launch vehicle from the Air Force Eastern Test Range (AFETR). Payload-class satellites include a variety of spacecraft equipped with specific instruments for various scientific and technological missions. These include communications satellites like Starlink; space stations such as the ISS; scientific satellites like the Hubble; Earth observation satellites from companies like Planet Labs, Umbra, and HawkEye 360; GPS; miniature CubeSats for education and research; and military/defense satellites.

Loading next visibility...
Identifier
65214, 2025-176S
Orbit
LEO
Country
Flag of USUS
Related business
Manufacturer
SpaceX/Seattle
Mission
Operational Commercial Communications
Bus & Motor
STARLINK V2MO, Unknown motor
Mass
575 kg wet, ~530 kg dry
Launch date (UTC)
2025-08-14 (10 months ago)
Launch vehicle
FALCON 9
Launch site
Air Force Eastern Test Range (AFETR)
Object type
Payload
Rocket body
Debris
Shape & HBR
Box + 2 Pan, 17.7 m
Radar Cross Section
36.964 m², Large (>1 m²)

Expand to show TLE details & history
Last TLE update: 12 hours ago

TLE from 12 hours ago
0 STARLINK-34511
1 65214U 25176S   26171.33739035  .00012624  00000-0  38414-3 0  9997
2 65214  53.1611  34.7120 0001096  83.7753 276.3374 15.34398404 48794
Epoch: 2026-06-20T08:05Z
TLE epoch observation values (Epoch: 2026-06-20T08:05:50.526Z)
Latitude
-0.00004°
Longitude
4.69798°
Altitude
463.527 km
Speed
7.636 km/s
True Right ascension
02h 18m 50s
True Declination
0° 00' 00"
Sunlit
Object was in daylight at epoch
Visualization orbit readout
Latitude
Unknown
Longitude
Unknown
Altitude
Unknown
Speed
Unknown
Apparent Right ascension
Unknown
Apparent Declination
Unknown
Sunlit
N/A
Visualization observer readout
Local Sidereal Time
07:24:17
Azimuth
Unknown
Elevation
Unknown
Doppler factor
Unknown
Orbital elements
Apogee altitude
463.714 km
Perigee altitude
462.215 km
Semi-major axis
6,841.102 km
Eccentricity
0.00011
Inclination
53.1611°
RAAN
34.712°
Arg. of periapsis
83.7753°
True anomaly
276.32492°
Mean anomaly
276.3374°
Eccentric anomaly
276.33116°
Mean motion
3.83578 °/min
Orbital period
93.85 mins
BSTAR
0.00038414
Loading maneuver chart data...
Computing Atmospheric mass density...
Loading historical data...
Loading historical data...
Loading historical data...
Loading historical data...
Loading historical data...
Loading historical data...
Loading historical data...

Documentation

Showing up to 5 results
|